Location: North Bay Shore
(40.7362°N, 73.2626°W)
Time: 14:18:31
(UTC+00:00)

Daily predictions for brighter satellites

Satellite Brightness Start Highest point End
(mag) Time Altitude Azimuth Time Altitude Azimuth Time Altitude Azimuth
Cosmos 1726 Rocket 3.5 22:14:45 10° S 22:19:03 71° E 22:23:25 10° NNE
Okean O Rocket 1.6 22:14:49 10° SSE 22:19:10 78° ENE 22:23:31 10° N
SL-4 R/B 3.8 22:17:54 10° NNW 22:20:04 15° N 22:22:18 10° NE
Cosmos 44 4.1 22:16:24 10° SW 22:20:44 49° NW 22:25:21 10° NNE
Cosmos 1346 Rocket 4.3 22:19:41 10° NNE 22:22:16 16° ENE 22:24:51 10° ESE
Cosmos 2058 4.3 22:22:29 10° NNE 22:25:15 17° ENE 22:27:59 10° ESE
BREEZE-M R/B 4.5 22:23:48 10° NW 22:26:59 28° NNE 22:32:28 10° ENE
Cosmos 1758 Rocket 4.4 22:22:52 10° NNW 22:27:10 56° W 22:31:23 10° S
Atlas Centaur 2 4.0 22:22:08 10° SW 22:29:19 37° S 22:36:58 10° ESE
NOAA 11 4.2 22:24:49 10° SSE 22:30:08 58° ENE 22:35:28 10° N
YAOGAN 6 3.7 22:27:19 10° S 22:30:52 50° W 22:34:29 10° NNW
Cosmos 1315 Rocket 4.1 22:28:24 10° SE 22:31:16 19° E 22:34:10 10° NE
Cosmos 1606 Rocket 4.3 22:31:19 10° SSW 22:35:37 58° W 22:39:59 10° N
Aureole 3 2.6 22:33:54 10° S 22:37:00 63° E 22:39:57 10° NNE
Cosmos 1992 Rocket 4.5 22:32:46 10° SSE 22:37:32 38° ESE 22:42:20 10° NE
CORIOLIS 4.3 22:33:05 10° SSE 22:38:25 82° WSW 22:43:49 10° NNW
Cosmos 220 Rocket 4.5 22:35:30 10° S 22:39:34 40° ESE 22:43:42 10° NE
Cosmos 1980 Rocket 3.4 22:36:31 10° SSE 22:40:39 21° E 22:44:46 10° NE
Cosmos 1455 3.3 22:37:44 10° SE 22:40:45 23° E 22:43:47 10° NE
USA 305 4.0 22:40:13 10° NNW 22:43:58 28° NNE 22:46:41 15° ENE
CZ-2C R/B 4.0 22:40:24 10° SE 22:45:17 30° ENE 22:50:04 10° N
Cosmos 2297 Rocket 2.2 22:39:37 10° NNW 22:45:17 69° ENE 22:50:55 10° SSE
In-Cosmos 22 Rocket 4.1 22:41:45 10° N 22:47:06 61° ENE 22:52:32 10° SSE
SKYMED 2 3.6 22:45:26 10° NNE 22:49:43 59° E 22:54:00 10° S
USA 306 3.9 22:46:43 10° NW 22:50:31 30° NNE 22:52:55 18° ENE
Okean-O 3.1 22:52:42 10° SE 22:56:48 38° ENE 23:00:55 10° N
Meteor 2-10 Rocket 3.6 22:52:09 10° S 22:57:18 54° E 23:02:19 10° NNE
SeaSat 1 4.2 23:00:01 13° NE 23:00:16 13° NE 23:02:37 10° NNE
Cosmos 1553 Rocket 4.0 22:55:38 10° S 23:01:59 80° E 23:08:16 10° N
Cosmos 1689 Rocket 1.8 23:00:00 10° NNE 23:02:53 83° E 23:05:45 10° S
Cosmos 1408 3.0 22:59:50 10° N 23:03:18 39° ENE 23:06:46 10° SSE
Meteor 2-15 4.4 22:57:43 10° S 23:03:47 66° E 23:09:53 10° NNE
Cosmos 2360 4.4 22:58:53 10° S 23:04:23 51° ESE 23:09:55 10° NE
H-2A R/B 2.9 22:59:51 10° SE 23:04:28 29° ENE 23:09:08 10° N
MOS 1 Rocket 4.0 23:04:06 10° NNE 23:08:26 33° E 23:12:59 10° SSE
Cosmos 44 Rocket 3.3 23:08:24 10° SSW 23:13:02 56° ESE 23:16:15 20° NE
Cosmos 2058 Rocket 4.3 23:09:48 10° SSW 23:14:06 46° WNW 23:18:27 10° N
Cosmos 2278 4.0 23:09:01 10° S 23:14:22 44° ESE 23:18:42 15° NE
Lacrosse 5 3.9 23:13:35 10° NNW 23:16:02 13° N 23:17:47 12° NNE
Cosmos 2219 3.8 23:13:31 10° NNW 23:19:11 60° WSW 23:24:48 10° S
Cosmos 1892 3.0 23:18:08 10° NNW 23:22:00 71° W 23:25:51 10° S
Cosmos 1939 Rocket 3.4 23:18:50 10° S 23:22:45 60° W 23:26:38 10° NNW
ARGOS 3.8 23:21:55 29° E 23:22:57 32° ENE 23:27:41 10° N
Cosmos 1076 Rocket 3.4 23:21:01 10° N 23:25:13 58° E 23:29:25 10° SSE
Cosmos 968 Rocket 3.6 23:20:45 10° NNW 23:25:58 75° WSW 23:31:06 10° SSE
Cosmos 2082 3.6 23:20:37 10° NNW 23:26:21 68° ENE 23:31:56 11° SSE
CZ-4B R/B 4.4 23:25:08 10° NNW 23:27:06 16° WNW 23:29:03 10° WSW
Cosmos 1745 Rocket 4.0 23:25:18 10° N 23:31:39 88° E 23:38:01 10° S
NOSS 3-3 (A) 4.1 23:26:40 10° SW 23:32:23 69° NW 23:38:33 11° NNE
NOSS 3-3 (C) 4.1 23:26:46 10° SW 23:32:30 70° NW 23:38:37 12° NNE
USA 307 3.0 23:30:22 10° NW 23:34:35 55° NE 23:35:04 52° ENE
Cosmos 1825 2.0 23:33:12 10° N 23:36:59 69° E 23:37:06 68° E
COSMO-SKYMED 1 3.9 23:33:38 10° N 23:37:42 40° WNW 23:41:45 10° SW
Cosmos 2369 3.8 23:33:09 10° SSW 23:38:52 76° WNW 23:44:35 10° NNE
USA 308 2.9 23:35:20 10° NW 23:39:35 60° NE 23:39:51 59° ENE
GPS 2-04 Rocket1 3.6 23:37:16 10° WSW 23:41:01 36° S 23:41:13 36° SSE
Helios 1A Rocket 3.5 23:37:18 10° S 23:41:21 58° WSW 23:45:25 10° NNW
DELTA 2 R/B(2) 4.4 23:35:20 10° W 23:41:29 77° S 23:41:35 76° SSE
CSL-04 Rocket 3.6 23:39:13 11° SSE 23:44:34 65° ENE 23:50:02 10° N
CZ-2D R/B 4.5 23:42:11 10° S 23:45:48 42° W 23:49:27 10° NNW
OAO 2 Rocket 3.9 23:41:14 10° WSW 23:45:57 43° S 23:46:58 38° SSE
YAOGAN 1 2.7 23:43:03 10° S 23:47:21 75° WSW 23:51:42 10° NNW
ATLAS 2AS CENTAUR R/B 3.4 23:40:57 10° NNW 23:47:43 35° NE 23:48:38 34° ENE
Cosmos 2227 Rocket 3.4 23:44:24 10° NW 23:49:43 43° WSW 23:55:00 10° S
CZ-4 R/B 2.0 23:47:40 10° S 23:51:28 51° W 23:55:14 10° NNW
Cosmos 2263 Rocket 3.3 23:46:36 10° N 23:50:16 28° NNE 23:50:16 28° NNE
Cosmos 1812 Rocket 4.0 23:49:58 10° SSW 23:54:19 60° W 23:58:39 10° N
